Starlink 32584

operational
NORAD ID: 62179 Int'l Des: 2024-225 Owner: SPXS Country: US Constellation: starlink
LEOCIRCULAR

Starlink 32584について

説明を読み込み中...

リアルタイム位置

3D地球を読み込み中...

次回通過

高度履歴

Altitude vs Time

uPlot chart will show altitude changes over time

軌道要素

1 62179U 24225S 25303.96252170 .00018669 00000-0 15674-2 0 9990
2 62179 70.0029 131.4635 0001804 254.1074 105.9886 14.98351837 50443
Epoch: Oct 30, 2025 • Age: 19 hours

現在のステータス

高度 574.2 km
速度 7.57 km/s
衛星直下点 7.05°N, 176.3°E
打ち上げ日 Nov 30, 2024
運用期間 0.9 years
タイプ internet

技術仕様

分類 Payload
質量 730.00 kg
乾燥質量 700.00 kg
総質量 730.00 kg
長さ 0.30 m
直径 4.10 m
スパン 29.00 m
形状 Box + pan
製造者 SPXS
バスタイプ Starlink V2M
フェーズステータス In Orbit
所有者/国 SPXS/US

大規模コンステレーション

Loading constellations...